CW9676 Weather Reports


time (UTC)temp
C
wind
direction
speed
KPH
gust
KPH
rain 1hr
cm
rain 24hr
cm
rain mn
cm
humidity
%
barometer
mb
20260903170709 21 225 6.4 14.5 0.00 0.00 0.00 65 1007.0
20260903165656 21 191 8.0 14.5 0.00 0.00 0.00 63 1007.0
20260903164709 22 195 4.8 11.3 0.00 0.00 0.00 56 1007.0
20260903163638 22 172 4.8 16.1 0.00 0.00 0.00 55 1006.8
20260903162647 23 176 4.8 16.1 0.00 0.00 0.00 55 1006.8
20260903161655 22 220 3.2 9.7 0.00 0.00 0.00 57 1006.9
20260903160702 22 163 3.2 8.0 0.00 0.00 0.00 59 1006.9
20260903154445 21 175 4.8 12.9 0.00 0.00 0.00 61 1006.9
20260903153429 21 186 3.2 9.7 0.00 0.00 0.00 64 1006.8
20260903152436 21 167 3.2 8.0 0.00 0.00 0.00 64 1006.9
20260903151421 21 162 4.8 11.3 0.00 0.00 0.00 67 1006.9
20260903150406 20 199 6.4 17.7 0.00 0.00 0.00 69 1006.6
20260903145431 20 210 9.7 17.7 0.00 0.00 0.00 70 1006.7
20260903144426 20 164 6.4 14.5 0.00 0.00 0.00 71 1006.6
20260903143407 20 221 9.7 17.7 0.00 0.00 0.00 72 1006.5
20260903142417 20 223 9.7 17.7 0.00 0.00 0.00 72 1006.5
20260903135145 19 215 8.0 14.5 0.00 0.00 0.00 71 1006.6
20260903134137 19 215 6.4 11.3 0.00 0.00 0.00 72 1006.5
20260903133147 18 242 4.8 8.0 0.00 0.00 0.00 72 1006.6
20260903132209 18 226 3.2 8.0 0.00 0.00 0.00 72 1006.6
20260903131158 18 4 4.8 8.0 0.00 0.00 0.00 71 1006.6
20260903130217 18 202 3.2 8.0 0.00 0.00 0.00 70 1006.4
20260903125206 18 184 3.2 9.7 0.00 0.00 0.00 68 1006.4
20260903124221 18 182 3.2 9.7 0.00 0.00 0.00 68 1006.3
20260903123150 18 187 3.2 6.4 0.00 0.00 0.00 66 1006.2
20260903122141 18 185 3.2 9.7 0.00 0.00 0.00 64 1006.1
20260903121131 19 190 4.8 9.7 0.00 0.00 0.00 64 1006.0
20260903120146 19 200 4.8 9.7 0.00 0.00 0.00 63 1005.7
20260903115121 19 210 4.8 11.3 0.00 0.00 0.00 62 1005.5
20260903114132 19 184 6.4 11.3 0.00 0.00 0.00 62 1005.4
20260903113146 19 215 4.8 12.9 0.00 0.00 0.00 62 1005.2
20260903112158 19 221 8.0 12.9 0.00 0.00 0.00 61 1005.1
20260903111204 19 210 4.8 11.3 0.00 0.00 0.00 61 1005.0
20260903105017 20 225 4.8 8.0 0.00 0.00 0.00 60 1005.2
20260903104011 20 209 4.8 12.9 0.00 0.00 0.00 60 1005.2
20260903101854 20 206 8.0 16.1 0.00 0.00 0.00 59 1005.4
20260903094602 20 194 4.8 11.3 0.00 0.00 0.00 59 1005.6
20260903093558 20 185 6.4 16.1 0.00 0.00 0.00 58 1005.5
20260903092554 21 186 8.0 16.1 0.00 0.00 0.00 57 1005.5
20260903091531 21 202 6.4 14.5 0.00 0.00 0.00 57 1005.5
20260903090527 21 173 6.4 12.9 0.00 0.00 0.00 56 1005.6
20260903085512 21 161 4.8 8.0 0.00 0.00 0.00 55 1005.7
20260903084527 21 154 4.8 12.9 0.00 0.00 0.00 54 1005.5
20260903083528 21 148 6.4 12.9 0.00 0.00 0.00 54 1005.5
20260903082510 21 196 6.4 12.9 0.00 0.00 0.00 54 1005.6
20260903081450 21 179 6.4 11.3 0.00 0.00 0.00 54 1005.9
20260903080434 21 194 4.8 11.3 0.00 0.00 0.00 53 1006.0
20260903075422 21 225 4.8 9.7 0.00 0.00 0.00 53 1006.1
20260903074359 21 207 4.8 9.7 0.00 0.00 0.00 52 1005.9
20260903073412 21 204 4.8 9.7 0.00 0.00 0.00 52 1006.0
20260903072437 21 183 4.8 9.7 0.00 0.00 0.00 51 1006.0
20260903071423 21 210 4.8 9.7 0.00 0.00 0.00 51 1006.0
20260903070447 21 215 4.8 9.7 0.00 0.00 0.00 50 1006.1
20260903065436 21 183 6.4 14.5 0.00 0.00 0.00 50 1006.1
20260903064411 22 202 8.0 14.5 0.00 0.00 0.00 50 1006.0
20260903063404 22 212 6.4 12.9 0.00 0.00 0.00 50 1006.1
20260903062343 22 172 6.4 12.9 0.00 0.00 0.00 49 1006.2
20260903061312 22 182 4.8 12.9 0.00 0.00 0.00 48 1006.3
20260903060247 22 173 4.8 11.3 0.00 0.00 0.00 46 1006.3
20260903054121 23 192 4.8 12.9 0.00 0.00 0.00 44 1006.3
20260903053103 23 165 6.4 12.9 0.00 0.00 0.00 42 1006.3
20260903052050 23 169 4.8 9.7 0.00 0.00 0.00 41 1006.3
20260903051022 23 163 6.4 12.9 0.00 0.00 0.00 41 1006.3
20260903050044 23 163 6.4 12.9 0.00 0.00 0.00 41 1006.3
20260903045105 23 164 4.8 9.7 0.00 0.00 0.00 41 1006.4
20260903044104 23 167 6.4 14.5 0.00 0.00 0.00 41 1006.2
20260903043030 24 198 6.4 14.5 0.00 0.00 0.00 40 1006.2
20260903042049 24 190 6.4 19.3 0.00 0.00 0.00 40 1006.2
20260903041112 25 212 8.0 19.3 0.00 0.00 0.00 39 1006.2
20260903040047 25 4 9.7 17.7 0.00 0.00 0.00 39 1006.1
20260903035047 25 196 9.7 22.5 0.00 0.00 0.00 38 1006.2
20260903032958 25 4 9.7 17.7 0.00 0.00 0.00 38 1006.1
20260903030818 25 203 9.7 17.7 0.00 0.00 0.00 38 1005.9
20260903024622 25 177 8.0 22.5 0.00 0.00 0.00 37 1005.7
20260903023610 26 148 9.7 22.5 0.00 0.00 0.00 36 1005.6
20260903022545 26 4 9.7 19.3 0.00 0.00 0.00 32 1005.3
20260903020345 26 157 8.0 17.7 0.00 0.00 0.00 31 1005.3
20260903015335 26 177 8.0 17.7 0.00 0.00 0.00 30 1005.2
20260903013157 26 160 12.9 22.5 0.00 0.00 0.00 29 1005.0
20260903012153 27 166 8.0 17.7 0.00 0.00 0.00 29 1004.9
20260903011134 27 195 12.9 24.1 0.00 0.00 0.00 29 1004.9
20260903010151 27 154 12.9 24.1 0.00 0.00 0.00 29 1004.9
20260903005215 27 157 9.7 22.5 0.00 0.00 0.00 29 1004.8
20260903004152 27 144 11.3 22.5 0.00 0.00 0.00 28 1004.9
20260903003144 28 179 14.5 27.4 0.00 0.00 0.00 27 1004.8
20260903002120 29 200 12.9 27.4 0.00 0.00 0.00 27 1004.7
20260903001141 29 176 9.7 25.7 0.00 0.00 0.00 27 1004.7
20260903000110 29 175 12.9 25.7 0.00 0.00 0.00 26 1004.8
20260902233926 30 148 9.7 19.3 0.00 0.00 0.00 24 1004.9
20260902232852 30 125 11.3 24.1 0.00 0.00 0.00 23 1005.0
20260902231822 30 162 12.9 24.1 0.00 0.00 0.00 23 1005.0
20260902230751 31 4 9.7 22.5 0.00 0.00 0.00 23 1005.1
20260902225746 31 175 8.0 25.7 0.00 0.00 0.00 23 1005.2
20260902224737 30 200 9.7 27.4 0.00 0.00 0.00 24 1005.4
20260902223716 30 198 14.5 27.4 0.00 0.00 0.00 24 1005.4
20260902222655 31 169 11.3 27.4 0.00 0.00 0.00 23 1005.4
20260902221652 31 165 11.3 27.4 0.00 0.00 0.00 24 1005.6
20260902220630 30 127 11.3 20.9 0.00 0.00 0.00 24 1005.7
20260902215623 30 160 11.3 25.7 0.00 0.00 0.00 25 1005.7
20260902214612 31 146 14.5 25.7 0.00 0.00 0.00 24 1005.8
20260902213611 31 148 3.2 19.3 0.00 0.00 0.00 25 1006.0
20260902212549 30 193 9.7 29.0 0.00 0.00 0.00 26 1006.1
20260902210457 30 167 9.7 19.3 0.00 0.00 0.00 25 1006.5
20260902205430 30 210 6.4 24.1 0.00 0.00 0.00 27 1006.7
20260902204423 29 198 9.7 24.1 0.00 0.00 0.00 26 1006.9
20260902203431 30 192 11.3 20.9 0.00 0.00 0.00 26 1007.1
20260902202449 31 176 9.7 20.9 0.00 0.00 0.00 24 1007.3
20260902201447 30 197 8.0 24.1 0.00 0.00 0.00 26 1007.5
20260902195350 30 115 11.3 20.9 0.00 0.00 0.00 26 1007.9
20260902194342 29 223 9.7 19.3 0.00 0.00 0.00 25 1008.0
20260902193326 29 139 8.0 20.9 0.00 0.00 0.00 25 1008.3
20260902192347 29 117 9.7 27.4 0.00 0.00 0.00 24 1008.5
20260902191409 28 250 11.3 27.4 0.00 0.00 0.00 24 1008.5
20260902190434 30 173 11.3 22.5 0.00 0.00 0.00 23 1008.6
20260902185457 28 140 11.3 25.7 0.00 0.00 0.00 24 1008.7
20260902184427 29 4 11.3 25.7 0.00 0.00 0.00 24 1009.0
20260902183418 28 198 9.7 19.3 0.00 0.00 0.00 25 1009.0
20260902182417 28 219 12.9 22.5 0.00 0.00 0.00 25 1009.1
20260902181438 28 156 11.3 22.5 0.00 0.00 0.00 24 1009.1
20260902180421 28 4 8.0 25.7 0.00 0.00 0.00 23 1009.2
20260902173141 27 4 11.3 22.5 0.00 0.00 0.00 24 1009.5